Climatologie pour Saint-Brevin les Pins
Jour • Résumé pour juin 13, 2017 Système :  Métrique    Anglais   Mixte
« - 1 jour
+ 1 jour »
Jour Semaine Mois Année Personnalisé
  Maximum : Minimum : Moyenne :
Température sous abri : 25.5 °C 11.9 °C 18.9 °C
Point de rosée : 15.2 °C 9.7 °C 12.6 °C
Humidité : 87 % 48 % 69 %
Vitesse du vent : 20.9 km/h 0.0 km/h 6.8 km/h
Rafale : 27.4 km/h - -
Direction :- - East
Pression : 1019.9 hPa 1014.8 hPa -
Précipitations : 0.0 mm    
Historical Graphs
 
 
Tableau de données pour juin 13, 2017
Heure Tempé Pt rosée Pression Vent Vitesse Rafale Humidité Taux pluie (/hr) Soleil
00:00 15.2 °C 12.4 °C 1019.9 hPa NNE 8.0 km/h 17.7 km/h 83 % 0.0 mm 0 W/m2
00:10 15.1 °C 12.2 °C 1019.9 hPa NE 6.4 km/h 16.1 km/h 83 % 0.0 mm 0 W/m2
00:15 15.1 °C 12.0 °C 1019.9 hPa NE 4.8 km/h 16.1 km/h 82 % 0.0 mm 0 W/m2
00:20 14.8 °C 12.0 °C 1019.9 hPa ENE 12.9 km/h 14.5 km/h 83 % 0.0 mm 0 W/m2
00:25 14.8 °C 11.9 °C 1019.9 hPa NNE 8.0 km/h 14.5 km/h 83 % 0.0 mm 0 W/m2
00:30 14.7 °C 11.9 °C 1019.9 hPa NNE 1.6 km/h 17.7 km/h 83 % 0.0 mm 0 W/m2
00:35 14.5 °C 11.6 °C 1019.9 hPa NE 6.4 km/h 17.7 km/h 83 % 0.0 mm 0 W/m2
00:40 14.6 °C 11.7 °C 1019.9 hPa NE 9.7 km/h 17.7 km/h 83 % 0.0 mm 0 W/m2
00:45 14.4 °C 11.6 °C 1019.9 hPa NE 4.8 km/h 12.9 km/h 83 % 0.0 mm 0 W/m2
00:50 14.3 °C 11.7 °C 1019.9 hPa NE 1.6 km/h 12.9 km/h 84 % 0.0 mm 0 W/m2
00:55 14.3 °C 11.5 °C 1019.9 hPa NE 1.6 km/h 19.3 km/h 83 % 0.0 mm 0 W/m2
01:00 14.3 °C 11.5 °C 1019.9 hPa ENE 1.6 km/h 19.3 km/h 83 % 0.0 mm 0 W/m2
01:05 14.2 °C 11.5 °C 1019.9 hPa NNW 6.4 km/h 14.5 km/h 84 % 0.0 mm 0 W/m2
01:10 14.1 °C 11.4 °C 1019.9 hPa NE 11.3 km/h 12.9 km/h 84 % 0.0 mm 0 W/m2
01:15 14.1 °C 11.4 °C 1019.5 hPa NE 9.7 km/h 20.9 km/h 84 % 0.0 mm 0 W/m2
01:20 13.9 °C 11.2 °C 1019.5 hPa North 3.2 km/h 20.9 km/h 84 % 0.0 mm 0 W/m2
01:25 13.9 °C 11.2 °C 1019.5 hPa NNE 4.8 km/h 11.3 km/h 84 % 0.0 mm 0 W/m2
01:30 13.8 °C 11.2 °C 1019.5 hPa ENE 3.2 km/h 11.3 km/h 84 % 0.0 mm 0 W/m2
01:35 13.7 °C 11.1 °C 1019.5 hPa NNE 3.2 km/h 12.9 km/h 84 % 0.0 mm 0 W/m2
01:45 13.5 °C 11.0 °C 1019.5 hPa North 3.2 km/h 16.1 km/h 85 % 0.0 mm 0 W/m2
01:50 13.4 °C 11.0 °C 1019.5 hPa North 8.0 km/h 19.3 km/h 85 % 0.0 mm 0 W/m2
01:55 13.4 °C 11.0 °C 1019.5 hPa NE 8.0 km/h 19.3 km/h 85 % 0.0 mm 0 W/m2
02:00 13.4 °C 10.7 °C 1019.5 hPa NE 9.7 km/h 14.5 km/h 84 % 0.0 mm 0 W/m2
02:05 13.3 °C 10.7 °C 1019.5 hPa NE 1.6 km/h 17.7 km/h 84 % 0.0 mm 0 W/m2
02:10 13.3 °C 10.6 °C 1019.5 hPa ENE 8.0 km/h 17.7 km/h 84 % 0.0 mm 0 W/m2
02:15 13.2 °C 10.6 °C 1019.2 hPa NNE 6.4 km/h 17.7 km/h 84 % 0.0 mm 0 W/m2
02:20 13.1 °C 10.5 °C 1019.5 hPa North 1.6 km/h 17.7 km/h 84 % 0.0 mm 0 W/m2
02:25 13.1 °C 10.4 °C 1019.5 hPa NE 3.2 km/h 20.9 km/h 84 % 0.0 mm 0 W/m2
02:35 12.9 °C 10.3 °C 1019.5 hPa NE 1.6 km/h 17.7 km/h 84 % 0.0 mm 0 W/m2
02:40 12.9 °C 10.4 °C 1019.5 hPa NE 1.6 km/h 14.5 km/h 85 % 0.0 mm 0 W/m2
02:45 12.8 °C 10.2 °C 1019.5 hPa NNE 12.9 km/h 14.5 km/h 84 % 0.0 mm 0 W/m2
02:50 12.8 °C 10.3 °C 1019.5 hPa North 1.6 km/h 14.5 km/h 85 % 0.0 mm 0 W/m2
02:55 12.8 °C 10.2 °C 1019.5 hPa ENE 8.0 km/h 17.7 km/h 84 % 0.0 mm 0 W/m2
03:00 12.8 °C 10.2 °C 1019.2 hPa NE 4.8 km/h 17.7 km/h 84 % 0.0 mm 0 W/m2
03:05 12.8 °C 10.2 °C 1019.2 hPa NE 3.2 km/h 16.1 km/h 84 % 0.0 mm 0 W/m2
03:15 12.6 °C 10.0 °C 1019.2 hPa ENE 1.6 km/h 16.1 km/h 84 % 0.0 mm 0 W/m2
03:20 12.6 °C 10.1 °C 1019.2 hPa NE 3.2 km/h 14.5 km/h 85 % 0.0 mm 0 W/m2
03:25 12.4 °C 10.0 °C 1019.2 hPa ENE 9.7 km/h 12.9 km/h 85 % 0.0 mm 0 W/m2
03:30 12.4 °C 9.9 °C 1019.2 hPa East 4.8 km/h 14.5 km/h 85 % 0.0 mm 0 W/m2
03:35 12.4 °C 9.8 °C 1019.2 hPa NE 11.3 km/h 16.1 km/h 84 % 0.0 mm 0 W/m2
03:40 12.5 °C 9.9 °C 1019.2 hPa East 8.0 km/h 16.1 km/h 84 % 0.0 mm 0 W/m2
03:45 12.4 °C 9.8 °C 1019.2 hPa ENE 4.8 km/h 19.3 km/h 84 % 0.0 mm 0 W/m2
03:50 12.3 °C 9.7 °C 1019.2 hPa East 8.0 km/h 19.3 km/h 84 % 0.0 mm 0 W/m2
03:55 12.4 °C 9.8 °C 1019.2 hPa ENE 3.2 km/h 17.7 km/h 84 % 0.0 mm 0 W/m2
04:00 12.4 °C 9.8 °C 1018.8 hPa ENE 4.8 km/h 17.7 km/h 84 % 0.0 mm 0 W/m2
04:05 12.3 °C 9.7 °C 1018.8 hPa East 14.5 km/h 20.9 km/h 84 % 0.0 mm 0 W/m2
04:10 12.4 °C 9.8 °C 1018.8 hPa NE 6.4 km/h 20.9 km/h 84 % 0.0 mm 0 W/m2
04:15 12.4 °C 9.8 °C 1018.8 hPa East 12.9 km/h 24.1 km/h 84 % 0.0 mm 0 W/m2
04:20 12.4 °C 9.8 °C 1018.5 hPa ENE 12.9 km/h 24.1 km/h 84 % 0.0 mm 0 W/m2
04:25 12.4 °C 9.8 °C 1018.8 hPa NE 8.0 km/h 22.5 km/h 84 % 0.0 mm 0 W/m2
04:30 12.4 °C 9.8 °C 1018.8 hPa ENE 8.0 km/h 22.5 km/h 84 % 0.0 mm 0 W/m2
04:35 12.4 °C 9.8 °C 1018.5 hPa East 8.0 km/h 19.3 km/h 84 % 0.0 mm 0 W/m2
04:40 12.4 °C 9.8 °C 1018.8 hPa ENE 6.4 km/h 17.7 km/h 84 % 0.0 mm 0 W/m2
04:45 12.4 °C 9.8 °C 1018.5 hPa NE 6.4 km/h 24.1 km/h 84 % 0.0 mm 0 W/m2
04:50 12.4 °C 9.8 °C 1018.8 hPa NE 3.2 km/h 24.1 km/h 84 % 0.0 mm 0 W/m2
04:55 12.3 °C 9.9 °C 1018.5 hPa NE 3.2 km/h 17.7 km/h 85 % 0.0 mm 0 W/m2
05:00 12.3 °C 9.9 °C 1018.5 hPa NE 4.8 km/h 16.1 km/h 85 % 0.0 mm 0 W/m2
05:05 12.3 °C 9.8 °C 1018.5 hPa NE 4.8 km/h 17.7 km/h 85 % 0.0 mm 0 W/m2
05:10 12.3 °C 9.9 °C 1018.5 hPa ENE 6.4 km/h 19.3 km/h 85 % 0.0 mm 0 W/m2
05:20 12.3 °C 9.8 °C 1018.5 hPa NE 11.3 km/h 16.1 km/h 85 % 0.0 mm 0 W/m2
05:25 12.3 °C 9.8 °C 1018.5 hPa ENE 4.8 km/h 16.1 km/h 85 % 0.0 mm 0 W/m2
05:30 12.2 °C 9.7 °C 1018.5 hPa ENE 4.8 km/h 12.9 km/h 85 % 0.0 mm 0 W/m2
05:35 12.2 °C 9.9 °C 1018.5 hPa NNE 3.2 km/h 12.9 km/h 86 % 0.0 mm 0 W/m2
05:45 12.0 °C 9.7 °C 1018.5 hPa ENE 12.9 km/h 14.5 km/h 86 % 0.0 mm 0 W/m2
05:50 12.0 °C 9.7 °C 1018.5 hPa Calm   17.7 km/h 86 % 0.0 mm 0 W/m2
05:55 11.9 °C 9.8 °C 1018.5 hPa ENE 6.4 km/h 17.7 km/h 87 % 0.0 mm 0 W/m2
06:00 12.0 °C 9.9 °C 1018.5 hPa ENE 4.8 km/h 19.3 km/h 87 % 0.0 mm 0 W/m2
06:05 12.1 °C 9.8 °C 1018.5 hPa NE 16.1 km/h 19.3 km/h 86 % 0.0 mm 0 W/m2
06:10 12.2 °C 9.9 °C 1018.5 hPa ENE 3.2 km/h 17.7 km/h 86 % 0.0 mm 0 W/m2
06:15 12.2 °C 9.9 °C 1018.5 hPa NE 9.7 km/h 17.7 km/h 86 % 0.0 mm 0 W/m2
06:20 12.2 °C 9.9 °C 1018.5 hPa NNE 4.8 km/h 14.5 km/h 86 % 0.0 mm 7 W/m2
06:25 12.2 °C 10.1 °C 1018.5 hPa ENE 3.2 km/h 14.5 km/h 87 % 0.0 mm 9 W/m2
06:30 12.2 °C 10.1 °C 1018.5 hPa Calm   12.9 km/h 87 % 0.0 mm 11 W/m2
06:35 12.2 °C 10.1 °C 1018.8 hPa NE 8.0 km/h 12.9 km/h 87 % 0.0 mm 14 W/m2
06:40 12.3 °C 10.2 °C 1018.8 hPa ENE 1.6 km/h 19.3 km/h 87 % 0.0 mm 21 W/m2
06:45 12.3 °C 10.2 °C 1018.8 hPa Calm   19.3 km/h 87 % 0.0 mm 30 W/m2
06:50 12.4 °C 10.3 °C 1018.8 hPa Calm   14.5 km/h 87 % 0.0 mm 35 W/m2
06:55 12.4 °C 10.3 °C 1018.8 hPa NE 4.8 km/h 17.7 km/h 87 % 0.0 mm 40 W/m2
07:00 12.5 °C 10.4 °C 1018.8 hPa ENE 11.3 km/h 17.7 km/h 87 % 0.0 mm 46 W/m2
07:05 12.6 °C 10.5 °C 1018.8 hPa Calm   14.5 km/h 87 % 0.0 mm 56 W/m2
07:10 12.7 °C 10.6 °C 1018.8 hPa East 1.6 km/h 14.5 km/h 87 % 0.0 mm 67 W/m2
07:15 12.8 °C 10.7 °C 1018.8 hPa North 4.8 km/h 14.5 km/h 87 % 0.0 mm 69 W/m2
07:20 12.9 °C 10.8 °C 1018.8 hPa NE 8.0 km/h 14.5 km/h 87 % 0.0 mm 72 W/m2
07:25 13.1 °C 10.8 °C 1018.8 hPa NNE 3.2 km/h 14.5 km/h 86 % 0.0 mm 74 W/m2
07:30 13.2 °C 10.9 °C 1019.2 hPa NNE 11.3 km/h 19.3 km/h 86 % 0.0 mm 84 W/m2
07:35 13.3 °C 10.9 °C 1018.8 hPa NE 8.0 km/h 20.9 km/h 85 % 0.0 mm 95 W/m2
07:40 13.4 °C 10.9 °C 1018.8 hPa ENE 4.8 km/h 20.9 km/h 85 % 0.0 mm 86 W/m2
07:45 13.4 °C 11.0 °C 1018.8 hPa North 3.2 km/h 20.9 km/h 85 % 0.0 mm 91 W/m2
07:50 13.4 °C 10.8 °C 1018.8 hPa NE 8.0 km/h 20.9 km/h 84 % 0.0 mm 98 W/m2
07:55 13.4 °C 11.0 °C 1018.8 hPa NE 3.2 km/h 20.9 km/h 85 % 0.0 mm 153 W/m2
08:00 13.6 °C 10.9 °C 1018.8 hPa ENE 6.4 km/h 25.7 km/h 84 % 0.0 mm 209 W/m2
08:05 13.7 °C 11.0 °C 1018.5 hPa NE 8.0 km/h 25.7 km/h 84 % 0.0 mm 200 W/m2
08:10 13.7 °C 11.1 °C 1018.5 hPa ENE 4.8 km/h 20.9 km/h 84 % 0.0 mm 169 W/m2
08:15 13.8 °C 11.2 °C 1018.5 hPa ENE 17.7 km/h 19.3 km/h 84 % 0.0 mm 253 W/m2
08:20 14.2 °C 11.5 °C 1018.5 hPa ESE 17.7 km/h 19.3 km/h 84 % 0.0 mm 265 W/m2
08:25 14.4 °C 11.4 °C 1018.5 hPa SE 12.9 km/h 20.9 km/h 82 % 0.0 mm 281 W/m2
08:30 14.7 °C 11.6 °C 1018.5 hPa East 12.9 km/h 20.9 km/h 82 % 0.0 mm 294 W/m2
08:35 14.8 °C 11.5 °C 1018.5 hPa NE 11.3 km/h 20.9 km/h 81 % 0.0 mm 309 W/m2
08:40 14.9 °C 11.5 °C 1018.5 hPa ENE 6.4 km/h 22.5 km/h 80 % 0.0 mm 318 W/m2
08:45 15.2 °C 11.8 °C 1018.5 hPa NE 4.8 km/h 22.5 km/h 80 % 0.0 mm 343 W/m2
08:50 15.5 °C 11.7 °C 1018.5 hPa East 11.3 km/h 20.9 km/h 78 % 0.0 mm 350 W/m2
08:55 15.7 °C 11.9 °C 1018.5 hPa NE 14.5 km/h 27.4 km/h 78 % 0.0 mm 369 W/m2
09:00 15.9 °C 12.1 °C 1018.2 hPa East 14.5 km/h 27.4 km/h 78 % 0.0 mm 385 W/m2
09:05 16.2 °C 11.9 °C 1018.5 hPa NE 9.7 km/h 20.9 km/h 76 % 0.0 mm 392 W/m2
09:10 16.3 °C 12.3 °C 1018.5 hPa East 16.1 km/h 22.5 km/h 77 % 0.0 mm 415 W/m2
09:20 16.7 °C 12.1 °C 1018.2 hPa ENE 11.3 km/h 22.5 km/h 74 % 0.0 mm 459 W/m2
09:25 16.8 °C 12.2 °C 1018.5 hPa East 11.3 km/h 25.7 km/h 74 % 0.0 mm 483 W/m2
09:30 17.0 °C 12.3 °C 1018.2 hPa NE 9.7 km/h 25.7 km/h 74 % 0.0 mm 533 W/m2
09:35 17.3 °C 12.4 °C 1018.2 hPa ENE 12.9 km/h 22.5 km/h 73 % 0.0 mm 534 W/m2
09:40 17.7 °C 12.8 °C 1018.2 hPa ESE 9.7 km/h 20.9 km/h 73 % 0.0 mm 585 W/m2
09:45 17.9 °C 13.0 °C 1018.2 hPa East 11.3 km/h 20.9 km/h 73 % 0.0 mm 543 W/m2
09:50 18.3 °C 13.1 °C 1018.2 hPa NE 4.8 km/h 20.9 km/h 72 % 0.0 mm 506 W/m2
09:55 18.4 °C 13.2 °C 1018.2 hPa ENE 11.3 km/h 20.9 km/h 72 % 0.0 mm 501 W/m2
10:00 18.2 °C 12.8 °C 1018.2 hPa NE 6.4 km/h 27.4 km/h 71 % 0.0 mm 404 W/m2
10:05 18.1 °C 13.0 °C 1018.2 hPa ESE 8.0 km/h 27.4 km/h 72 % 0.0 mm 432 W/m2
10:10 18.2 °C 13.0 °C 1017.8 hPa ESE 14.5 km/h 24.1 km/h 72 % 0.0 mm 353 W/m2
10:15 18.1 °C 12.7 °C 1017.8 hPa East 16.1 km/h 24.1 km/h 71 % 0.0 mm 441 W/m2
10:20 18.3 °C 13.0 °C 1017.8 hPa ENE 12.9 km/h 20.9 km/h 71 % 0.0 mm 420 W/m2
10:25 18.5 °C 12.9 °C 1017.8 hPa ESE 4.8 km/h 22.5 km/h 70 % 0.0 mm 448 W/m2
10:30 18.8 °C 13.4 °C 1017.8 hPa ESE 6.4 km/h 22.5 km/h 71 % 0.0 mm 475 W/m2
10:35 18.9 °C 13.3 °C 1017.8 hPa Calm   17.7 km/h 70 % 0.0 mm 450 W/m2
10:40 19.1 °C 13.5 °C 1017.8 hPa ENE 11.3 km/h 17.7 km/h 70 % 0.0 mm 555 W/m2
10:45 19.3 °C 13.2 °C 1017.8 hPa ESE 16.1 km/h 20.9 km/h 68 % 0.0 mm 608 W/m2
10:50 19.5 °C 13.4 °C 1017.5 hPa East 4.8 km/h 20.9 km/h 68 % 0.0 mm 677 W/m2
10:55 19.9 °C 13.6 °C 1017.5 hPa ENE 19.3 km/h 24.1 km/h 67 % 0.0 mm 684 W/m2
11:00 20.1 °C 14.0 °C 1017.5 hPa SE 16.1 km/h 24.1 km/h 68 % 0.0 mm 715 W/m2
11:05 20.3 °C 14.2 °C 1017.5 hPa East 12.9 km/h 22.5 km/h 68 % 0.0 mm 712 W/m2
11:10 20.3 °C 13.5 °C 1017.5 hPa NNE 12.9 km/h 20.9 km/h 65 % 0.0 mm 257 W/m2
11:15 20.2 °C 14.1 °C 1017.5 hPa SE 11.3 km/h 20.9 km/h 68 % 0.0 mm 691 W/m2
11:20 20.8 °C 14.5 °C 1017.5 hPa East 8.0 km/h 19.3 km/h 67 % 0.0 mm 712 W/m2
11:25 21.1 °C 13.8 °C 1017.5 hPa East 4.8 km/h 16.1 km/h 63 % 0.0 mm 756 W/m2
11:30 21.3 °C 14.9 °C 1017.5 hPa East 14.5 km/h 22.5 km/h 67 % 0.0 mm 761 W/m2
11:35 21.4 °C 14.3 °C 1017.5 hPa ESE 16.1 km/h 22.5 km/h 64 % 0.0 mm 770 W/m2
11:40 21.6 °C 14.2 °C 1017.2 hPa East 4.8 km/h 16.1 km/h 63 % 0.0 mm 780 W/m2
11:45 22.0 °C 14.6 °C 1017.2 hPa East 16.1 km/h 22.5 km/h 63 % 0.0 mm 788 W/m2
11:50 21.8 °C 14.2 °C 1017.2 hPa ENE 4.8 km/h 22.5 km/h 62 % 0.0 mm 800 W/m2
11:55 21.8 °C 14.4 °C 1017.2 hPa East 11.3 km/h 22.5 km/h 63 % 0.0 mm 798 W/m2
12:00 21.9 °C 14.6 °C 1017.5 hPa ENE 17.7 km/h 22.5 km/h 63 % 0.0 mm 812 W/m2
12:05 22.1 °C 14.2 °C 1017.5 hPa ENE 19.3 km/h 22.5 km/h 61 % 0.0 mm 821 W/m2
12:10 22.3 °C 13.9 °C 1017.5 hPa SE 11.3 km/h 22.5 km/h 59 % 0.0 mm 802 W/m2
12:15 22.4 °C 13.8 °C 1017.5 hPa ESE 12.9 km/h 22.5 km/h 58 % 0.0 mm 798 W/m2
12:20 22.7 °C 13.8 °C 1017.5 hPa East 6.4 km/h 22.5 km/h 57 % 0.0 mm 819 W/m2
12:25 22.7 °C 14.2 °C 1017.5 hPa East 8.0 km/h 19.3 km/h 59 % 0.0 mm 796 W/m2
12:30 22.7 °C 14.0 °C 1017.5 hPa ENE 12.9 km/h 24.1 km/h 58 % 0.0 mm 800 W/m2
12:35 22.6 °C 14.1 °C 1017.2 hPa ENE 3.2 km/h 24.1 km/h 59 % 0.0 mm 874 W/m2
12:40 23.1 °C 14.1 °C 1017.2 hPa SE 17.7 km/h 20.9 km/h 57 % 0.0 mm 863 W/m2
12:45 22.9 °C 13.9 °C 1017.5 hPa East 14.5 km/h 24.1 km/h 57 % 0.0 mm 846 W/m2
12:50 22.7 °C 13.7 °C 1017.5 hPa East 1.6 km/h 25.7 km/h 57 % 0.0 mm 749 W/m2
12:55 22.3 °C 13.7 °C 1017.5 hPa SE 6.4 km/h 25.7 km/h 58 % 0.0 mm 522 W/m2
13:00 22.4 °C 14.3 °C 1017.5 hPa NE 8.0 km/h 22.5 km/h 60 % 0.0 mm 722 W/m2
13:05 22.9 °C 14.5 °C 1017.5 hPa ESE 3.2 km/h 22.5 km/h 59 % 0.0 mm 803 W/m2
13:10 23.2 °C 15.0 °C 1017.5 hPa NNE 4.8 km/h 12.9 km/h 60 % 0.0 mm 740 W/m2
13:20 23.1 °C 15.2 °C 1017.5 hPa SE 16.1 km/h 17.7 km/h 61 % 0.0 mm 638 W/m2
13:25 23.3 °C 14.0 °C 1017.5 hPa ESE 8.0 km/h 16.1 km/h 56 % 0.0 mm 703 W/m2
13:30 23.3 °C 13.8 °C 1017.5 hPa East 17.7 km/h 19.3 km/h 55 % 0.0 mm 784 W/m2
13:35 23.3 °C 14.1 °C 1017.5 hPa ENE 4.8 km/h 19.3 km/h 56 % 0.0 mm 686 W/m2
13:40 23.2 °C 13.9 °C 1017.5 hPa East 11.3 km/h 19.3 km/h 56 % 0.0 mm 649 W/m2
13:45 23.1 °C 14.3 °C 1017.5 hPa East 4.8 km/h 19.3 km/h 58 % 0.0 mm 552 W/m2
13:50 23.0 °C 14.6 °C 1017.5 hPa East 6.4 km/h 19.3 km/h 59 % 0.0 mm 489 W/m2
13:55 22.9 °C 14.0 °C 1017.5 hPa NNE 4.8 km/h 20.9 km/h 57 % 0.0 mm 464 W/m2
14:00 22.6 °C 13.9 °C 1017.5 hPa Calm   20.9 km/h 58 % 0.0 mm 438 W/m2
14:05 22.5 °C 13.8 °C 1017.5 hPa ENE 6.4 km/h 20.9 km/h 58 % 0.0 mm 404 W/m2
14:10 22.5 °C 14.3 °C 1017.5 hPa ENE 4.8 km/h 20.9 km/h 60 % 0.0 mm 378 W/m2
14:15 22.6 °C 14.1 °C 1017.5 hPa ESE 8.0 km/h 14.5 km/h 59 % 0.0 mm 357 W/m2
14:20 22.4 °C 13.7 °C 1017.5 hPa Calm   12.9 km/h 58 % 0.0 mm 329 W/m2
14:25 22.4 °C 14.0 °C 1017.5 hPa East 4.8 km/h 12.9 km/h 59 % 0.0 mm 315 W/m2
14:30 22.3 °C 13.4 °C 1017.2 hPa ESE 6.4 km/h 14.5 km/h 57 % 0.0 mm 313 W/m2
14:35 22.3 °C 13.9 °C 1017.2 hPa ENE 3.2 km/h 16.1 km/h 59 % 0.0 mm 323 W/m2
14:40 22.2 °C 14.1 °C 1017.2 hPa Calm   16.1 km/h 60 % 0.0 mm 350 W/m2
14:45 22.3 °C 14.2 °C 1016.8 hPa Calm   14.5 km/h 60 % 0.0 mm 425 W/m2
14:50 22.8 °C 14.1 °C 1016.8 hPa ESE 1.6 km/h 14.5 km/h 58 % 0.0 mm 636 W/m2
14:55 23.2 °C 13.9 °C 1017.2 hPa NE 9.7 km/h 17.7 km/h 56 % 0.0 mm 496 W/m2
15:00 23.0 °C 14.3 °C 1017.2 hPa ENE 6.4 km/h 17.7 km/h 58 % 0.0 mm 552 W/m2
15:05 23.0 °C 14.3 °C 1017.2 hPa NE 4.8 km/h 14.5 km/h 58 % 0.0 mm 645 W/m2
15:10 23.2 °C 14.2 °C 1017.2 hPa ESE 4.8 km/h 17.7 km/h 57 % 0.0 mm 592 W/m2
15:15 23.4 °C 14.7 °C 1016.8 hPa NNE 3.2 km/h 17.7 km/h 58 % 0.0 mm 573 W/m2
15:20 23.6 °C 15.1 °C 1016.8 hPa ESE 16.1 km/h 16.1 km/h 59 % 0.0 mm 701 W/m2
15:25 23.9 °C 14.6 °C 1016.8 hPa ESE 4.8 km/h 16.1 km/h 56 % 0.0 mm 693 W/m2
15:30 23.8 °C 13.7 °C 1016.8 hPa ESE 14.5 km/h 16.1 km/h 53 % 0.0 mm 605 W/m2
15:35 23.7 °C 14.1 °C 1016.8 hPa East 12.9 km/h 22.5 km/h 55 % 0.0 mm 592 W/m2
15:40 23.6 °C 14.9 °C 1016.8 hPa East 4.8 km/h 22.5 km/h 58 % 0.0 mm 545 W/m2
15:45 24.2 °C 14.6 °C 1016.8 hPa ESE 11.3 km/h 12.9 km/h 55 % 0.0 mm 643 W/m2
15:50 23.9 °C 14.0 °C 1016.8 hPa NE 8.0 km/h 12.9 km/h 54 % 0.0 mm 594 W/m2
15:55 24.5 °C 14.6 °C 1016.5 hPa ENE 9.7 km/h 14.5 km/h 54 % 0.0 mm 853 W/m2
16:00 24.6 °C 14.0 °C 1016.5 hPa ESE 3.2 km/h 14.5 km/h 52 % 0.0 mm 810 W/m2
16:05 24.8 °C 14.3 °C 1016.8 hPa East 11.3 km/h 17.7 km/h 52 % 0.0 mm 628 W/m2
16:10 24.6 °C 14.1 °C 1016.8 hPa East 11.3 km/h 17.7 km/h 52 % 0.0 mm 796 W/m2
16:15 24.7 °C 14.2 °C 1016.5 hPa East 3.2 km/h 16.1 km/h 52 % 0.0 mm 715 W/m2
16:20 24.9 °C 15.2 °C 1016.5 hPa East 11.3 km/h 16.1 km/h 55 % 0.0 mm 793 W/m2
16:25 24.9 °C 14.1 °C 1016.5 hPa East 4.8 km/h 17.7 km/h 51 % 0.0 mm 744 W/m2
16:30 24.7 °C 13.2 °C 1016.5 hPa Calm   17.7 km/h 49 % 0.0 mm 659 W/m2
16:35 24.8 °C 14.0 °C 1016.5 hPa SSE 4.8 km/h 16.1 km/h 51 % 0.0 mm 712 W/m2
16:40 25.1 °C 14.2 °C 1016.5 hPa ESE 6.4 km/h 19.3 km/h 51 % 0.0 mm 640 W/m2
16:45 24.8 °C 14.0 °C 1016.1 hPa East 9.7 km/h 19.3 km/h 51 % 0.0 mm 577 W/m2
16:50 24.6 °C 14.0 °C 1016.1 hPa ESE 14.5 km/h 20.9 km/h 52 % 0.0 mm 499 W/m2
16:55 24.4 °C 13.3 °C 1016.1 hPa East 11.3 km/h 20.9 km/h 50 % 0.0 mm 415 W/m2
17:00 24.2 °C 13.7 °C 1016.1 hPa SE 8.0 km/h 14.5 km/h 52 % 0.0 mm 394 W/m2
17:05 24.0 °C 14.1 °C 1016.5 hPa ENE 3.2 km/h 14.5 km/h 54 % 0.0 mm 353 W/m2
17:10 23.9 °C 14.3 °C 1016.5 hPa ENE 1.6 km/h 12.9 km/h 55 % 0.0 mm 350 W/m2
17:15 23.9 °C 13.7 °C 1016.5 hPa East 3.2 km/h 16.1 km/h 53 % 0.0 mm 427 W/m2
17:20 24.3 °C 14.1 °C 1016.5 hPa East 6.4 km/h 16.1 km/h 53 % 0.0 mm 714 W/m2
17:25 25.3 °C 15.1 °C 1016.5 hPa ENE 4.8 km/h 16.1 km/h 53 % 0.0 mm 853 W/m2
17:30 25.5 °C 13.7 °C 1016.5 hPa ESE 1.6 km/h 14.5 km/h 48 % 0.0 mm 689 W/m2
17:35 25.4 °C 14.3 °C 1016.1 hPa ESE 9.7 km/h 14.5 km/h 50 % 0.0 mm 571 W/m2
17:40 25.1 °C 14.5 °C 1016.5 hPa NNE 3.2 km/h 17.7 km/h 52 % 0.0 mm 448 W/m2
17:45 24.8 °C 14.6 °C 1016.5 hPa NE 12.9 km/h 22.5 km/h 53 % 0.0 mm 431 W/m2
17:50 24.7 °C 13.6 °C 1016.5 hPa East 3.2 km/h 22.5 km/h 50 % 0.0 mm 499 W/m2
17:55 24.7 °C 14.2 °C 1016.5 hPa NE 3.2 km/h 16.1 km/h 52 % 0.0 mm 526 W/m2
18:00 25.0 °C 14.8 °C 1016.1 hPa Calm   16.1 km/h 53 % 0.0 mm 613 W/m2
18:05 25.2 °C 14.4 °C 1016.1 hPa East 3.2 km/h 14.5 km/h 51 % 0.0 mm 504 W/m2
18:10 25.0 °C 14.5 °C 1016.1 hPa ENE 6.4 km/h 14.5 km/h 52 % 0.0 mm 383 W/m2
18:15 24.7 °C 13.9 °C 1016.1 hPa ENE 8.0 km/h 14.5 km/h 51 % 0.0 mm 468 W/m2
18:20 24.9 °C 13.8 °C 1016.1 hPa ESE 8.0 km/h 14.5 km/h 50 % 0.0 mm 441 W/m2
18:25 24.7 °C 13.9 °C 1016.1 hPa ENE 4.8 km/h 14.5 km/h 51 % 0.0 mm 320 W/m2
18:30 24.4 °C 13.6 °C 1016.1 hPa East 11.3 km/h 14.5 km/h 51 % 0.0 mm 390 W/m2
18:35 24.5 °C 14.3 °C 1016.1 hPa East 3.2 km/h 14.5 km/h 53 % 0.0 mm 422 W/m2
18:40 24.6 °C 13.7 °C 1016.1 hPa Calm   12.9 km/h 51 % 0.0 mm 255 W/m2
18:45 24.3 °C 14.1 °C 1016.1 hPa ESE 4.8 km/h 14.5 km/h 53 % 0.0 mm 341 W/m2
18:50 24.1 °C 13.9 °C 1015.8 hPa ENE 4.8 km/h 14.5 km/h 53 % 0.0 mm 199 W/m2
18:55 23.9 °C 14.1 °C 1015.8 hPa ENE 3.2 km/h 16.1 km/h 54 % 0.0 mm 211 W/m2
19:00 24.3 °C 14.4 °C 1015.8 hPa North 4.8 km/h 16.1 km/h 54 % 0.0 mm 403 W/m2
19:05 24.7 °C 14.2 °C 1015.8 hPa NE 12.9 km/h 16.1 km/h 52 % 0.0 mm 345 W/m2
19:10 24.6 °C 14.9 °C 1015.5 hPa ENE 8.0 km/h 16.1 km/h 55 % 0.0 mm 248 W/m2
19:15 24.3 °C 14.9 °C 1015.5 hPa East 6.4 km/h 22.5 km/h 56 % 0.0 mm 271 W/m2
19:20 24.3 °C 14.4 °C 1015.5 hPa ENE 8.0 km/h 22.5 km/h 54 % 0.0 mm 339 W/m2
19:25 24.2 °C 14.3 °C 1015.5 hPa ENE 8.0 km/h 20.9 km/h 54 % 0.0 mm 267 W/m2
19:30 24.1 °C 14.2 °C 1015.1 hPa SE 11.3 km/h 20.9 km/h 54 % 0.0 mm 248 W/m2
19:35 24.0 °C 14.4 °C 1015.1 hPa East 4.8 km/h 17.7 km/h 55 % 0.0 mm 237 W/m2
19:40 24.1 °C 14.5 °C 1015.1 hPa NE 9.7 km/h 17.7 km/h 55 % 0.0 mm 272 W/m2
19:45 24.2 °C 13.7 °C 1015.1 hPa ENE 8.0 km/h 19.3 km/h 52 % 0.0 mm 271 W/m2
19:50 24.1 °C 13.6 °C 1015.1 hPa East 11.3 km/h 19.3 km/h 52 % 0.0 mm 163 W/m2
19:55 23.8 °C 13.6 °C 1015.1 hPa ESE 6.4 km/h 19.3 km/h 53 % 0.0 mm 116 W/m2
20:00 23.5 °C 13.9 °C 1014.8 hPa ENE 20.9 km/h 20.9 km/h 55 % 0.0 mm 123 W/m2
20:05 23.4 °C 13.6 °C 1014.8 hPa SE 8.0 km/h 20.9 km/h 54 % 0.0 mm 107 W/m2
20:10 23.3 °C 13.2 °C 1015.1 hPa SE 12.9 km/h 20.9 km/h 53 % 0.0 mm 77 W/m2
20:15 23.2 °C 13.1 °C 1015.1 hPa East 9.7 km/h 20.9 km/h 53 % 0.0 mm 104 W/m2
20:20 23.2 °C 13.4 °C 1015.1 hPa ESE 3.2 km/h 17.7 km/h 54 % 0.0 mm 69 W/m2
20:25 23.1 °C 13.3 °C 1015.1 hPa ENE 6.4 km/h 17.7 km/h 54 % 0.0 mm 65 W/m2
20:30 23.1 °C 13.2 °C 1015.1 hPa ENE 8.0 km/h 17.7 km/h 54 % 0.0 mm 60 W/m2
20:35 23.1 °C 13.3 °C 1015.1 hPa East 1.6 km/h 14.5 km/h 54 % 0.0 mm 76 W/m2
20:40 23.1 °C 13.6 °C 1014.8 hPa East 4.8 km/h 12.9 km/h 55 % 0.0 mm 67 W/m2
20:45 23.1 °C 13.5 °C 1014.8 hPa East 3.2 km/h 17.7 km/h 55 % 0.0 mm 67 W/m2
20:50 23.0 °C 13.5 °C 1014.8 hPa ESE 3.2 km/h 17.7 km/h 55 % 0.0 mm 58 W/m2
20:55 22.9 °C 13.4 °C 1015.1 hPa ENE 3.2 km/h 12.9 km/h 55 % 0.0 mm 53 W/m2
21:00 22.9 °C 13.4 °C 1015.1 hPa East 3.2 km/h 12.9 km/h 55 % 0.0 mm 49 W/m2
21:05 22.8 °C 13.5 °C 1015.1 hPa ENE 4.8 km/h 11.3 km/h 56 % 0.0 mm 54 W/m2
21:10 22.7 °C 13.5 °C 1015.1 hPa ESE 4.8 km/h 11.3 km/h 56 % 0.0 mm 60 W/m2
21:15 22.6 °C 13.9 °C 1015.1 hPa Calm   11.3 km/h 58 % 0.0 mm 62 W/m2
21:20 22.5 °C 13.8 °C 1015.1 hPa SE 4.8 km/h 11.3 km/h 58 % 0.0 mm 53 W/m2
21:25 22.4 °C 13.8 °C 1015.1 hPa SE 6.4 km/h 11.3 km/h 58 % 0.0 mm 44 W/m2
21:30 22.3 °C 13.9 °C 1015.1 hPa East 3.2 km/h 11.3 km/h 59 % 0.0 mm 39 W/m2
21:35 22.1 °C 13.7 °C 1015.1 hPa ESE 4.8 km/h 9.7 km/h 59 % 0.0 mm 33 W/m2
21:40 21.9 °C 13.8 °C 1015.5 hPa Calm   11.3 km/h 60 % 0.0 mm 28 W/m2
21:45 21.8 °C 13.7 °C 1015.5 hPa ESE 1.6 km/h 11.3 km/h 60 % 0.0 mm 23 W/m2
21:50 21.6 °C 13.7 °C 1015.5 hPa ESE 3.2 km/h 8.0 km/h 61 % 0.0 mm 18 W/m2
21:55 21.3 °C 13.8 °C 1015.5 hPa ESE 3.2 km/h 8.0 km/h 62 % 0.0 mm 12 W/m2
22:00 21.1 °C 14.0 °C 1015.5 hPa Calm   6.4 km/h 64 % 0.0 mm 11 W/m2
22:10 20.7 °C 13.9 °C 1015.5 hPa SE 1.6 km/h 6.4 km/h 65 % 0.0 mm 0 W/m2
22:15 20.5 °C 13.7 °C 1015.5 hPa SE 1.6 km/h 6.4 km/h 65 % 0.0 mm 0 W/m2
22:20 20.4 °C 13.6 °C 1015.5 hPa ESE 3.2 km/h 11.3 km/h 65 % 0.0 mm 0 W/m2
22:25 20.5 °C 13.5 °C 1015.8 hPa ESE 3.2 km/h 11.3 km/h 64 % 0.0 mm 0 W/m2
22:30 20.2 °C 13.4 °C 1015.5 hPa East 8.0 km/h 11.3 km/h 65 % 0.0 mm 0 W/m2
22:35 20.1 °C 13.5 °C 1015.5 hPa ESE 4.8 km/h 11.3 km/h 66 % 0.0 mm 0 W/m2
22:40 20.1 °C 13.5 °C 1015.5 hPa ESE 4.8 km/h 11.3 km/h 66 % 0.0 mm 0 W/m2
22:45 19.9 °C 13.4 °C 1015.8 hPa East 3.2 km/h 9.7 km/h 66 % 0.0 mm 0 W/m2
22:50 19.8 °C 13.3 °C 1015.8 hPa East 1.6 km/h 9.7 km/h 66 % 0.0 mm 0 W/m2
23:00 19.5 °C 13.4 °C 1015.8 hPa East 1.6 km/h 4.8 km/h 68 % 0.0 mm 0 W/m2
23:05 19.2 °C 13.3 °C 1015.8 hPa Calm   8.0 km/h 69 % 0.0 mm 0 W/m2
23:10 19.0 °C 13.4 °C 1015.8 hPa Calm   8.0 km/h 70 % 0.0 mm 0 W/m2
23:15 18.8 °C 13.6 °C 1015.8 hPa Calm   3.2 km/h 72 % 0.0 mm 0 W/m2
23:20 18.8 °C 13.6 °C 1015.5 hPa East 4.8 km/h 8.0 km/h 72 % 0.0 mm 0 W/m2
23:25 18.9 °C 13.5 °C 1015.5 hPa ESE 3.2 km/h 8.0 km/h 71 % 0.0 mm 0 W/m2
23:30 18.8 °C 13.6 °C 1015.5 hPa ESE 3.2 km/h 8.0 km/h 72 % 0.0 mm 0 W/m2
23:35 18.9 °C 13.7 °C 1015.5 hPa ESE 1.6 km/h 9.7 km/h 72 % 0.0 mm 0 W/m2
23:40 18.8 °C 13.7 °C 1015.1 hPa East 3.2 km/h 9.7 km/h 72 % 0.0 mm 0 W/m2
23:45 18.9 °C 13.8 °C 1014.8 hPa East 8.0 km/h 11.3 km/h 72 % 0.0 mm 0 W/m2
23:50 18.8 °C 13.9 °C 1014.8 hPa ENE 3.2 km/h 11.3 km/h 73 % 0.0 mm 0 W/m2
23:55 18.9 °C 13.9 °C 1014.8 hPa East 3.2 km/h 9.7 km/h 73 % 0.0 mm 0 W/m2
Avec l'autorisation de Weather Underground - 1.75 mb